Temp
40 40 41 41 42 43 43 44 42 42 43 43 43 43 44 44 44 45 46 46 46 47 47 47 48 47 46 44 44 43 43 43 44 44 44 44 44 43 43 43 43 43 44 44 44 45 45 45 46 47 48 47 47 47 47 46 45 45 45 46 46 46 46 46 46 47 49 50 51
40 39 39 39 39 40 41 42 42 42 42 43 43 43 43 43 44 45 45 44 46 46 47 47 46 45 45 44 43 43 43 43 43 43 43 43 43 43 42 42 42 42 42 43 43 44 45 45 45 46 47 47 47 47 47 46 46 45 45 45 45 46 46 47 47 47 47 48 50
39 39 38 39 39 40 41 42 41 41 40 41 42 42 42 43 44 45 45 45 44 44 45 47 44 44 44 43 43 42 42 42 41 41 41 42 42 42 42 42 42 41 41 42 42 43 44 44 45 45 46 47 46 46 46 46 46 45 45 44 46 46 47 47 47 47 48 48 48
38 38 39 39 39 39 40 41 41 40 40 41 40 40 41 43 44 45 45 43 43 43 44 45 43 42 42 42 41 41 40 40 40 40 40 40 40 41 41 41 41 41 41 41 41 41 42 43 44 45 46 45 45 45 46 47 46 45 46 46 47 47 47 48 47 47 48 47 47
38 38 39 40 40 39 39 39 39 40 40 41 41 42 43 43 43 43 43 43 44 45 45 43 41 40 40 40 40 39 39 38 38 39 39 39 39 39 40 40 40 40 40 40 40 41 41 41 44 45 45 44 45 45 45 45 45 45 46 48 48 48 48 48 48 48 48 47 47
39 38 38 38 38 38 38 38 39 40 40 40 41 42 43 45 45 45 45 45 45 44 43 41 40 39 38 38 38 38 38 37 37 38 38 38 39 39 39 39 38 38 39 39 39 40 40 40 43 44 44 44 43 43 44 44 45 45 46 47 47 48 48 47 47 47 47 46 46
41 41 40 39 38 38 38 38 38 39 39 40 41 42 42 43 43 43 43 44 44 43 42 41 40 39 38 37 37 37 37 37 37 37 37 38 38 38 38 38 38 38 38 38 38 38 39 39 41 43 43 43 44 43 43 43 44 44 44 45 46 47 46 46 46 47 47 46 45
43 43 43 43 41 41 40 40 40 41 41 43 42 42 42 41 41 41 42 42 42 42 42 41 40 39 37 36 36 36 36 36 36 37 37 38 38 38 38 38 38 38 38 38 37 37 38 39 41 41 41 42 43 43 42 42 42 42 43 43 45 45 45 45 46 46 45 45 45
44 45 45 45 44 43 43 42 42 41 42 43 41 41 41 41 40 40 40 41 41 41 40 40 39 37 36 36 36 36 37 37 38 38 38 38 39 39 40 40 40 40 40 39 39 38 38 39 40 40 40 41 41 41 41 41 41 41 42 42 43 44 45 45 45 45 45 45 45
46 47 47 47 46 45 45 43 42 42 41 42 41 41 41 41 40 40 40 41 39 38 37 37 37 36 36 36 37 37 38 38 39 39 40 40 40 40 41 41 41 41 42 41 41 39 38 39 39 39 38 39 38 39 39 40 40 40 41 42 43 43 44 44 44 45 45 45 45
47 47 47 48 47 46 45 44 44 43 43 43 42 42 41 41 41 41 40 40 38 37 37 37 37 37 37 38 38 39 39 40 41 41 41 41 41 41 42 42 42 42 42 42 42 41 41 40 40 39 38 38 38 38 38 38 39 39 40 41 41 42 43 44 45 45 45 45 44
47 47 47 47 46 46 45 44 44 44 44 43 43 42 42 42 41 41 40 39 38 38 38 38 38 38 39 39 40 40 40 41 41 41 41 41 41 42 42 42 42 42 42 42 42 42 42 41 41 40 39 39 40 39 38 38 38 38 39 39 40 41 42 43 44 45 45 45 44
46 46 46 46 45 45 44 44 44 44 44 43 43 43 43 43 41 40 39 39 38 39 39 39 39 39 39 40 40 41 41 41 41 41 41 41 42 42 42 42 42 42 42 42 42 42 41 41 40 39 39 39 40 40 39 38 38 38 38 38 39 39 40 42 43 44 44 45 44
46 46 46 46 45 44 44 44 44 44 44 43 43 43 43 43 41 40 39 39 39 38 39 39 39 40 40 40 40 41 41 41 41 41 41 41 42 42 42 42 42 42 42 41 41 41 41 40 40 39 39 39 39 39 39 39 39 38 38 38 38 38 39 40 42 42 43 43 43
46 46 45 45 44 44 44 43 44 44 44 43 44 43 43 43 42 41 39 39 38 38 39 39 40 41 41 41 41 41 41 41 41 41 41 41 41 41 41 41 41 41 41 41 41 41 40 40 40 39 39 39 39 39 39 39 39 39 39 38 38 38 38 39 41 42 42 43 43
45 45 45 44 44 44 44 44 45 45 44 44 43 43 43 42 42 40 39 39 39 39 40 40 41 41 42 41 41 41 41 41 41 41 41 41 41 41 41 41 41 41 41 41 40 40 40 40 40 40 40 39 39 39 39 39 39 39 39 38 38 39 39 39 40 41 42 42 43
45 44 44 44 44 43 44 44 44 44 44 43 43 42 42 42 42 41 40 40 40 40 40 40 41 41 41 41 41 41 41 41 41 41 41 41 41 41 41 41 41 41 41 40 40 40 40 40 41 41 41 40 40 39 39 39 39 39 39 39 39 39 39 40 40 41 42 42 42
44 44 44 43 43 43 43 43 43 43 43 42 42 42 42 42 42 41 41 41 41 40 39 39 40 40 41 41 41 41 41 41 41 41 41 41 41 41 41 41 41 41 41 41 41 41 41 41 41 41 41 41 40 40 40 39 39 39 39 39 39 39 40 40 41 41 42 42 43
43 43 43 43 43 43 43 43 43 42 42 42 42 42 42 41 41 41 41 41 41 40 39 38 38 39 40 40 40 41 41 41 41 41 41 41 41 41 41 41 41 41 41 41 41 41 41 41 41 41 41 40 40 40 40 39 39 39 39 39 39 39 39 40 40 41 42 43 43
42 42 42 42 42 42 42 43 42 42 42 42 41 41 41 41 40 40 40 40 41 40 40 38 38 38 39 39 39 39 40 41 40 40 40 40 40 41 41 41 41 41 41 41 41 41 41 41 41 41 41 40 40 39 39 39 39 39 38 38 38 38 39 39 40 41 41 42 43
42 42 42 42 42 42 42 42 42 42 41 41 40 39 39 39 39 39 40 40 40 40 39 38 37 37 38 38 39 39 39 40 40 40 40 40 40 40 41 41 41 41 41 41 41 41 41 41 41 41 40 40 40 39 39 39 39 39 39 39 39 39 39 39 40 40 41 42 43
41 42 42 42 42 42 42 42 41 40 40 39 39 38 37 37 38 38 39 39 39 39 38 37 37 37 37 38 39 39 39 40 40 40 40 40 40 40 40 41 41 41 40 40 40 40 41 41 41 40 40 40 40 40 40 40 39 39 39 39 39 38 38 39 40 40 40 41 42
41 41 41 41 41 41 41 40 40 39 39 38 37 37 37 37 37 37 38 38 37 37 37 37 37 37 37 38 38 38 38 38 38 38 38 39 39 39 40 40 40 40 39 40 40 40 40 40 40 40 40 40 40 40 40 40 39 39 39 39 39 38 38 38 39 39 39 40 41
40 40 40 41 40 40 39 39 39 38 38 38 37 36 36 36 36 36 36 36 36 36 36 36 36 36 36 37 37 37 37 37 36 36 36 37 37 38 39 39 39 39 39 39 38 38 39 39 39 39 40 40 40 40 39 39 39 39 39 39 39 39 38 38 39 39 39 40 41
39 39 39 39 39 38 38 38 38 37 37 37 37 36 36 35 35 35 35 35 35 35 35 35 35 35 36 36 36 36 36 36 36 36 36 36 36 37 38 38 39 38 38 37 38 39 39 38 38 39 39 39 39 39 38 39 38 38 38 38 38 38 38 38 38 39 39 40 41
37 37 37 37 37 37 37 37 37 37 37 37 37 36 36 35 34 34 34 34 34 34 34 34 34 34 35 35 35 35 35 36 36 35 35 35 35 36 37 38 38 37 37 38 38 39 39 39 39 38 38 38 38 38 38 38 37 37 37 37 37 38 38 38 38 39 39 40 40
36 36 36 36 36 36 36 36 36 36 36 36 36 36 35 35 34 33 33 33 33 33 33 33 34 34 34 35 35 34 35 35 35 35 35 35 35 35 36 36 37 36 36 38 38 38 38 38 39 38 38 37 37 37 37 37 37 37 37 37 37 37 37 37 37 38 39 40 40
34 34 34 34 34 34 35 35 35 34 34 35 35 35 35 34 34 33 32 32 32 33 33 33 34 34 35 35 34 34 34 34 34 34 35 34 34 35 35 35 36 36 37 37 38 38 38 38 38 38 38 37 37 37 37 37 37 37 37 37 37 37 37 37 37 37 38 39 40
33 33 33 33 33 33 33 33 33 33 33 34 34 34 34 33 33 33 33 32 32 32 33 34 34 34 34 34 33 33 33 34 34 34 34 34 34 34 34 35 35 36 37 37 38 38 38 38 38 38 38 38 37 36 36 36 36 37 36 36 37 37 37 37 37 37 38 38 39
33 32 31 31 31 32 32 32 32 32 32 33 33 33 32 32 32 32 32 32 32 32 33 33 33 33 32 32 33 33 33 33 33 33 33 33 33 33 33 34 34 35 36 37 37 37 37 38 38 37 37 37 36 36 36 36 36 36 36 36 36 36 37 37 37 37 38 38 39
32 31 30 30 30 30 31 31 31 32 32 32 32 32 32 31 32 32 32 32 32 32 32 33 32 31 31 32 32 32 32 32 33 32 32 32 32 32 33 33 34 34 35 36 37 37 37 37 37 37 37 37 36 36 36 36 36 35 35 36 36 36 37 37 38 38 38 39 39
31 31 30 30 29 30 30 31 31 31 31 31 31 31 31 31 31 31 31 32 31 31 31 31 31 31 31 31 31 32 32 32 32 32 32 32 32 32 32 33 33 34 34 36 36 36 37 37 37 37 37 37 36 36 36 36 36 36 36 36 36 37 37 38 38 38 39 39 39
30 30 30 29 29 29 30 30 30 30 30 30 30 30 30 31 30 31 31 31 31 30 30 30 30 30 30 30 31 31 31 31 31 31 32 32 32 32 32 32 33 33 34 36 36 36 36 37 37 37 37 36 36 36 36 36 36 35 35 36 36 37 37 37 38 38 39 39 40
28 29 29 29 29 29 29 29 29 28 28 29 29 29 30 30 30 30 30 30 30 30 30 30 30 30 30 30 30 30 30 30 31 31 31 32 32 32 32 32 32 33 35 35 36 36 36 36 36 37 37 36 36 35 35 35 35 35 35 36 36 37 37 38 38 38 39 40 40
28 28 29 29 29 29 29 28 28 28 28 28 28 28 29 29 29 29 29 30 30 30 30 30 30 30 30 30 30 30 30 29 30 30 30 31 31 31 31 31 32 33 35 35 36 36 36 36 36 36 36 36 35 35 35 35 35 35 35 35 36 36 37 37 38 38 39 40 40
29 28 28 28 28 29 29 28 28 28 28 27 27 27 28 28 29 29 29 30 30 29 29 29 30 30 30 30 30 30 30 30 30 30 30 30 30 31 31 31 32 33 34 35 35 36 36 36 36 36 36 36 35 35 35 35 35 35 35 35 35 36 37 37 37 38 39 39 40
29 28 28 27 28 29 29 29 28 28 27 27 27 27 28 28 28 29 29 30 29 28 28 28 29 29 29 29 29 29 30 30 30 30 30 30 30 30 30 30 31 32 33 35 35 35 36 36 36 36 36 35 34 34 34 34 34 35 35 35 35 36 37 37 37 38 38 39 39
30 29 29 28 29 29 29 29 28 27 27 27 27 27 28 28 28 29 29 29 28 28 28 28 28 28 28 29 29 29 30 30 30 30 30 30 30 30 30 30 31 32 33 34 35 35 36 36 36 36 35 34 33 34 34 34 34 34 34 35 35 36 37 37 38 38 38 38 39
31 30 30 29 29 28 28 28 27 27 27 27 27 28 28 28 28 28 29 29 28 28 28 27 28 28 28 29 29 29 29 30 30 30 30 30 30 31 31 31 31 32 33 34 35 35 35 36 36 35 35 34 33 34 34 34 34 34 34 35 35 36 36 37 37 37 38 38 39
30 30 30 29 29 28 28 27 27 27 27 27 27 28 28 27 28 28 29 29 28 28 28 28 28 28 29 29 29 29 29 30 30 30 30 30 31 31 32 31 31 32 33 34 34 35 35 35 36 36 35 34 34 34 34 34 34 34 34 35 35 35 35 35 36 36 36 36 38
30 30 29 29 28 28 28 27 27 27 27 27 27 27 28 28 28 28 28 28 28 28 28 28 28 28 29 29 29 29 29 29 30 30 30 30 31 31 32 31 31 31 32 33 34 35 35 35 36 36 35 34 34 34 34 34 34 34 34 34 34 34 33 33 34 34 35 35 36
MSLP
1016.33 1016.25 1016.21 1016.13 1016.05 1015.97 1015.89 1015.73 1015.57 1015.49 1015.37 1015.33 1015.25 1015.13 1015.05 1014.93 1014.85 1014.77 1014.65 1014.53 1014.45 1014.33 1014.21 1014.05 1013.97 1013.89 1013.77 1013.69 1013.65 1013.61 1013.53 1013.49 1013.41 1013.37 1013.37 1013.33 1013.29 1013.29 1013.25 1013.25 1013.25 1013.25 1013.21 1013.21 1013.21 1013.21 1013.21 1013.21 1013.25 1013.21 1013.17 1013.13 1013.05 1012.93 1012.81 1012.73 1012.61 1012.49 1012.37 1012.25 1012.17 1012.09 1012.01 1011.97 1011.93 1011.93 1011.89 1011.81 1011.77
1016.29 1016.21 1016.13 1016.05 1016.01 1015.93 1015.81 1015.65 1015.49 1015.37 1015.29 1015.21 1015.09 1015.01 1014.93 1014.85 1014.77 1014.65 1014.53 1014.41 1014.29 1014.21 1014.05 1013.97 1013.89 1013.77 1013.69 1013.61 1013.49 1013.49 1013.45 1013.37 1013.33 1013.25 1013.21 1013.21 1013.21 1013.21 1013.21 1013.21 1013.17 1013.17 1013.21 1013.21 1013.17 1013.13 1013.17 1013.17 1013.21 1013.21 1013.13 1013.09 1012.97 1012.89 1012.73 1012.65 1012.57 1012.49 1012.37 1012.21 1012.13 1012.05 1011.93 1011.85 1011.77 1011.77 1011.77 1011.69 1011.65
1016.25 1016.21 1016.13 1016.05 1015.93 1015.89 1015.77 1015.65 1015.49 1015.37 1015.25 1015.09 1015.01 1014.93 1014.85 1014.77 1014.65 1014.49 1014.37 1014.25 1014.17 1014.05 1014.01 1013.89 1013.77 1013.65 1013.61 1013.53 1013.41 1013.37 1013.33 1013.29 1013.21 1013.21 1013.17 1013.17 1013.09 1013.09 1013.09 1013.13 1013.09 1013.09 1013.09 1013.09 1013.09 1013.09 1013.09 1013.13 1013.13 1013.13 1013.09 1012.97 1012.93 1012.85 1012.73 1012.57 1012.53 1012.45 1012.33 1012.21 1012.05 1011.93 1011.85 1011.77 1011.65 1011.65 1011.61 1011.53 1011.49
1016.25 1016.21 1016.09 1016.01 1015.93 1015.85 1015.73 1015.57 1015.49 1015.33 1015.21 1015.05 1014.93 1014.81 1014.73 1014.65 1014.49 1014.33 1014.17 1014.05 1013.97 1013.89 1013.81 1013.73 1013.65 1013.61 1013.49 1013.45 1013.37 1013.29 1013.21 1013.17 1013.17 1013.13 1013.09 1013.09 1013.05 1013.01 1013.01 1013.01 1013.01 1012.97 1013.01 1013.01 1013.05 1013.01 1013.05 1013.05 1013.09 1013.05 1013.01 1012.93 1012.89 1012.77 1012.65 1012.53 1012.49 1012.37 1012.25 1012.09 1011.97 1011.89 1011.77 1011.65 1011.53 1011.49 1011.41 1011.37 1011.29
1016.21 1016.09 1016.01 1015.93 1015.81 1015.73 1015.61 1015.49 1015.41 1015.25 1015.09 1014.93 1014.85 1014.73 1014.61 1014.45 1014.33 1014.17 1014.05 1013.93 1013.77 1013.65 1013.57 1013.49 1013.49 1013.45 1013.37 1013.33 1013.29 1013.21 1013.21 1013.09 1013.09 1013.09 1013.05 1012.93 1012.93 1012.89 1012.85 1012.81 1012.85 1012.85 1012.89 1012.89 1012.93 1012.93 1012.93 1012.93 1012.93 1012.93 1012.93 1012.89 1012.81 1012.69 1012.61 1012.49 1012.41 1012.33 1012.17 1011.97 1011.85 1011.73 1011.61 1011.49 1011.41 1011.37 1011.25 1011.17 1011.09
1016.17 1016.01 1015.89 1015.81 1015.73 1015.61 1015.49 1015.37 1015.25 1015.09 1014.97 1014.85 1014.77 1014.65 1014.49 1014.29 1014.13 1014.01 1013.89 1013.77 1013.61 1013.45 1013.37 1013.37 1013.37 1013.29 1013.25 1013.21 1013.21 1013.17 1013.13 1013.09 1013.01 1012.97 1012.93 1012.89 1012.85 1012.77 1012.77 1012.73 1012.73 1012.73 1012.73 1012.73 1012.77 1012.77 1012.85 1012.85 1012.81 1012.77 1012.77 1012.77 1012.69 1012.57 1012.49 1012.45 1012.37 1012.21 1012.05 1011.89 1011.73 1011.61 1011.49 1011.37 1011.25 1011.21 1011.13 1011.05 1010.93
1016.09 1015.93 1015.81 1015.69 1015.61 1015.49 1015.37 1015.21 1015.09 1014.97 1014.85 1014.77 1014.65 1014.49 1014.33 1014.13 1013.97 1013.89 1013.77 1013.61 1013.49 1013.37 1013.25 1013.21 1013.17 1013.17 1013.17 1013.17 1013.13 1013.09 1013.05 1012.97 1012.93 1012.89 1012.85 1012.77 1012.77 1012.69 1012.65 1012.61 1012.61 1012.61 1012.57 1012.57 1012.65 1012.65 1012.65 1012.69 1012.65 1012.61 1012.57 1012.61 1012.57 1012.49 1012.37 1012.33 1012.25 1012.13 1011.97 1011.77 1011.65 1011.49 1011.41 1011.25 1011.13 1011.09 1011.01 1010.89 1010.81
1015.93 1015.85 1015.69 1015.57 1015.45 1015.37 1015.21 1015.09 1014.97 1014.85 1014.69 1014.57 1014.49 1014.33 1014.13 1013.97 1013.81 1013.69 1013.61 1013.49 1013.37 1013.25 1013.17 1013.09 1013.09 1013.09 1013.09 1013.09 1013.05 1012.97 1012.93 1012.85 1012.77 1012.73 1012.65 1012.65 1012.57 1012.53 1012.49 1012.49 1012.45 1012.41 1012.41 1012.41 1012.45 1012.49 1012.49 1012.49 1012.49 1012.45 1012.41 1012.41 1012.37 1012.21 1012.21 1012.21 1012.13 1012.05 1011.89 1011.69 1011.49 1011.37 1011.25 1011.13 1011.01 1010.93 1010.85 1010.73 1010.65
1015.89 1015.73 1015.57 1015.45 1015.29 1015.21 1015.09 1014.93 1014.77 1014.69 1014.57 1014.45 1014.29 1014.13 1013.93 1013.81 1013.69 1013.57 1013.49 1013.37 1013.21 1013.09 1013.01 1012.97 1012.93 1012.93 1012.93 1012.93 1012.89 1012.81 1012.77 1012.65 1012.57 1012.49 1012.49 1012.41 1012.37 1012.33 1012.29 1012.21 1012.21 1012.21 1012.17 1012.21 1012.21 1012.21 1012.25 1012.29 1012.25 1012.21 1012.21 1012.13 1012.09 1012.05 1012.01 1011.97 1011.93 1011.85 1011.73 1011.61 1011.37 1011.21 1011.05 1010.97 1010.89 1010.77 1010.69 1010.61 1010.49
1015.81 1015.65 1015.49 1015.37 1015.21 1015.05 1014.93 1014.77 1014.65 1014.57 1014.45 1014.33 1014.13 1013.97 1013.81 1013.69 1013.53 1013.41 1013.33 1013.17 1013.05 1012.97 1012.97 1012.93 1012.89 1012.85 1012.81 1012.77 1012.69 1012.65 1012.53 1012.45 1012.37 1012.33 1012.25 1012.21 1012.17 1012.09 1012.05 1012.05 1012.01 1011.97 1011.93 1011.93 1011.97 1012.05 1012.05 1012.05 1012.01 1011.97 1011.93 1011.93 1011.93 1011.89 1011.81 1011.77 1011.77 1011.65 1011.53 1011.41 1011.25 1011.09 1010.89 1010.77 1010.69 1010.65 1010.53 1010.37 1010.29
1015.73 1015.57 1015.41 1015.29 1015.09 1014.93 1014.77 1014.69 1014.57 1014.45 1014.33 1014.17 1014.01 1013.85 1013.69 1013.57 1013.41 1013.25 1013.13 1013.01 1012.97 1012.93 1012.85 1012.77 1012.73 1012.65 1012.61 1012.53 1012.45 1012.37 1012.29 1012.21 1012.17 1012.09 1012.05 1011.97 1011.93 1011.89 1011.85 1011.81 1011.77 1011.77 1011.73 1011.73 1011.77 1011.77 1011.77 1011.77 1011.73 1011.65 1011.65 1011.65 1011.65 1011.61 1011.57 1011.57 1011.49 1011.45 1011.37 1011.21 1011.09 1010.93 1010.77 1010.57 1010.49 1010.41 1010.29 1010.21 1010.09
1015.65 1015.49 1015.33 1015.13 1014.97 1014.81 1014.73 1014.65 1014.45 1014.33 1014.21 1014.05 1013.89 1013.73 1013.57 1013.45 1013.29 1013.13 1013.05 1012.93 1012.93 1012.77 1012.65 1012.57 1012.49 1012.45 1012.37 1012.29 1012.21 1012.09 1012.05 1012.01 1011.93 1011.93 1011.85 1011.77 1011.69 1011.65 1011.61 1011.53 1011.49 1011.45 1011.45 1011.45 1011.49 1011.53 1011.49 1011.45 1011.41 1011.37 1011.29 1011.25 1011.25 1011.29 1011.29 1011.29 1011.25 1011.21 1011.09 1011.05 1010.93 1010.77 1010.61 1010.41 1010.33 1010.21 1010.05 1009.93 1009.85
1015.53 1015.37 1015.21 1015.05 1014.89 1014.77 1014.65 1014.53 1014.37 1014.21 1014.05 1013.93 1013.77 1013.61 1013.41 1013.25 1013.13 1013.05 1012.93 1012.85 1012.77 1012.65 1012.49 1012.37 1012.29 1012.21 1012.17 1012.09 1011.97 1011.93 1011.85 1011.77 1011.77 1011.69 1011.65 1011.57 1011.49 1011.45 1011.37 1011.29 1011.21 1011.21 1011.13 1011.09 1011.17 1011.21 1011.21 1011.13 1011.13 1011.09 1011.01 1010.93 1010.93 1010.93 1010.93 1010.93 1010.93 1010.93 1010.85 1010.77 1010.69 1010.57 1010.45 1010.29 1010.17 1010.05 1009.93 1009.77 1009.65
1015.45 1015.29 1015.13 1014.97 1014.81 1014.69 1014.57 1014.49 1014.29 1014.13 1013.97 1013.85 1013.65 1013.49 1013.37 1013.17 1013.01 1012.93 1012.81 1012.73 1012.61 1012.45 1012.33 1012.21 1012.09 1012.01 1011.93 1011.89 1011.77 1011.73 1011.65 1011.61 1011.57 1011.49 1011.41 1011.37 1011.25 1011.21 1011.09 1010.97 1010.93 1010.89 1010.85 1010.81 1010.85 1010.93 1010.93 1010.89 1010.85 1010.77 1010.73 1010.65 1010.57 1010.53 1010.57 1010.61 1010.61 1010.53 1010.49 1010.49 1010.37 1010.29 1010.21 1010.09 1009.97 1009.89 1009.77 1009.61 1009.45
1015.37 1015.21 1015.09 1014.93 1014.77 1014.65 1014.53 1014.41 1014.21 1014.05 1013.93 1013.77 1013.57 1013.37 1013.21 1013.09 1012.93 1012.77 1012.69 1012.57 1012.41 1012.29 1012.17 1012.05 1011.93 1011.77 1011.69 1011.65 1011.57 1011.49 1011.45 1011.37 1011.37 1011.29 1011.21 1011.09 1011.01 1010.93 1010.85 1010.77 1010.65 1010.61 1010.61 1010.57 1010.57 1010.57 1010.61 1010.61 1010.53 1010.49 1010.45 1010.33 1010.21 1010.21 1010.21 1010.21 1010.21 1010.17 1010.13 1010.09 1010.05 1009.97 1009.89 1009.81 1009.77 1009.69 1009.57 1009.41 1009.21
1015.33 1015.17 1015.05 1014.89 1014.77 1014.65 1014.49 1014.37 1014.21 1014.01 1013.85 1013.65 1013.49 1013.33 1013.17 1012.97 1012.81 1012.69 1012.61 1012.45 1012.29 1012.13 1012.01 1011.89 1011.73 1011.61 1011.45 1011.37 1011.33 1011.29 1011.21 1011.13 1011.09 1011.01 1010.93 1010.77 1010.73 1010.65 1010.57 1010.49 1010.41 1010.37 1010.37 1010.33 1010.29 1010.25 1010.21 1010.25 1010.21 1010.17 1010.09 1010.01 1009.93 1009.85 1009.81 1009.81 1009.77 1009.77 1009.77 1009.69 1009.65 1009.61 1009.53 1009.49 1009.49 1009.41 1009.33 1009.17 1009.01
1015.33 1015.17 1015.05 1014.89 1014.77 1014.65 1014.49 1014.37 1014.17 1013.97 1013.81 1013.61 1013.41 1013.29 1013.13 1012.93 1012.73 1012.61 1012.45 1012.29 1012.13 1011.97 1011.81 1011.65 1011.53 1011.41 1011.25 1011.17 1011.09 1011.05 1011.01 1010.89 1010.77 1010.73 1010.65 1010.49 1010.45 1010.37 1010.29 1010.21 1010.13 1010.09 1010.05 1010.05 1010.01 1009.93 1009.93 1009.89 1009.89 1009.81 1009.77 1009.65 1009.53 1009.49 1009.45 1009.45 1009.37 1009.37 1009.37 1009.33 1009.25 1009.21 1009.17 1009.13 1009.09 1009.05 1008.97 1008.85 1008.69
1015.29 1015.17 1015.05 1014.89 1014.77 1014.65 1014.49 1014.29 1014.13 1013.93 1013.77 1013.57 1013.37 1013.17 1013.01 1012.77 1012.61 1012.41 1012.21 1012.09 1011.93 1011.81 1011.65 1011.49 1011.37 1011.21 1011.09 1010.97 1010.89 1010.77 1010.73 1010.65 1010.53 1010.45 1010.33 1010.21 1010.13 1010.05 1010.01 1009.93 1009.81 1009.81 1009.77 1009.77 1009.73 1009.65 1009.57 1009.53 1009.49 1009.45 1009.37 1009.29 1009.17 1009.09 1009.09 1009.05 1008.97 1008.93 1008.93 1008.93 1008.93 1008.85 1008.77 1008.77 1008.69 1008.65 1008.57 1008.49 1008.33
1015.29 1015.13 1015.01 1014.89 1014.73 1014.57 1014.37 1014.21 1014.05 1013.81 1013.61 1013.41 1013.21 1013.01 1012.81 1012.65 1012.49 1012.29 1012.05 1011.89 1011.77 1011.65 1011.49 1011.37 1011.17 1011.05 1010.93 1010.77 1010.65 1010.57 1010.49 1010.37 1010.29 1010.21 1010.05 1009.97 1009.89 1009.77 1009.69 1009.61 1009.53 1009.49 1009.49 1009.49 1009.41 1009.37 1009.25 1009.21 1009.09 1009.05 1008.97 1008.93 1008.81 1008.77 1008.69 1008.65 1008.61 1008.57 1008.57 1008.57 1008.49 1008.49 1008.41 1008.37 1008.37 1008.29 1008.21 1008.13 1007.97
1015.33 1015.13 1014.97 1014.81 1014.65 1014.49 1014.25 1014.05 1013.85 1013.65 1013.49 1013.25 1013.09 1012.89 1012.65 1012.49 1012.33 1012.17 1011.97 1011.73 1011.53 1011.41 1011.29 1011.17 1011.01 1010.85 1010.73 1010.61 1010.49 1010.37 1010.25 1010.17 1010.05 1009.93 1009.77 1009.69 1009.61 1009.49 1009.41 1009.37 1009.29 1009.25 1009.21 1009.17 1009.09 1009.01 1008.93 1008.85 1008.77 1008.65 1008.61 1008.53 1008.49 1008.37 1008.33 1008.29 1008.21 1008.21 1008.21 1008.17 1008.13 1008.05 1008.05 1008.01 1007.97 1007.93 1007.85 1007.77 1007.61
1015.29 1015.09 1014.93 1014.73 1014.53 1014.37 1014.17 1013.93 1013.73 1013.49 1013.33 1013.13 1012.93 1012.77 1012.57 1012.37 1012.21 1012.01 1011.77 1011.61 1011.37 1011.25 1011.13 1011.01 1010.89 1010.73 1010.53 1010.41 1010.33 1010.17 1010.01 1009.93 1009.81 1009.69 1009.53 1009.45 1009.33 1009.21 1009.13 1009.09 1009.01 1008.93 1008.89 1008.81 1008.77 1008.65 1008.57 1008.49 1008.41 1008.33 1008.21 1008.17 1008.09 1008.01 1007.93 1007.89 1007.85 1007.81 1007.77 1007.77 1007.69 1007.65 1007.65 1007.65 1007.61 1007.53 1007.49 1007.37 1007.25
1015.21 1015.05 1014.85 1014.65 1014.45 1014.21 1014.01 1013.77 1013.61 1013.41 1013.21 1013.01 1012.81 1012.65 1012.45 1012.25 1012.05 1011.85 1011.65 1011.45 1011.29 1011.13 1011.01 1010.85 1010.69 1010.57 1010.41 1010.29 1010.13 1009.97 1009.77 1009.65 1009.57 1009.45 1009.33 1009.21 1009.09 1008.97 1008.89 1008.85 1008.77 1008.69 1008.61 1008.49 1008.41 1008.33 1008.25 1008.17 1008.05 1007.97 1007.93 1007.81 1007.73 1007.65 1007.57 1007.53 1007.49 1007.37 1007.37 1007.33 1007.29 1007.25 1007.21 1007.21 1007.21 1007.13 1007.09 1006.97 1006.89
1015.09 1014.93 1014.73 1014.53 1014.33 1014.09 1013.93 1013.69 1013.49 1013.33 1013.13 1012.93 1012.73 1012.49 1012.33 1012.13 1011.93 1011.73 1011.53 1011.37 1011.17 1011.01 1010.89 1010.69 1010.57 1010.41 1010.25 1010.13 1009.97 1009.85 1009.65 1009.49 1009.37 1009.21 1009.09 1009.01 1008.89 1008.77 1008.65 1008.65 1008.53 1008.41 1008.29 1008.17 1008.05 1007.97 1007.89 1007.77 1007.69 1007.65 1007.57 1007.49 1007.37 1007.29 1007.21 1007.21 1007.13 1007.05 1006.93 1006.89 1006.85 1006.81 1006.77 1006.77 1006.73 1006.69 1006.65 1006.57 1006.49
1015.05 1014.85 1014.65 1014.45 1014.21 1014.01 1013.81 1013.65 1013.41 1013.21 1013.01 1012.77 1012.61 1012.41 1012.21 1012.01 1011.77 1011.61 1011.41 1011.21 1011.05 1010.89 1010.73 1010.53 1010.45 1010.25 1010.09 1009.93 1009.77 1009.65 1009.49 1009.33 1009.13 1008.93 1008.77 1008.73 1008.65 1008.49 1008.41 1008.33 1008.21 1008.05 1007.93 1007.77 1007.69 1007.61 1007.53 1007.49 1007.37 1007.29 1007.21 1007.21 1007.09 1007.01 1006.97 1006.93 1006.81 1006.73 1006.65 1006.57 1006.49 1006.41 1006.33 1006.29 1006.29 1006.25 1006.21 1006.09 1006.05
1014.93 1014.77 1014.57 1014.37 1014.17 1013.93 1013.73 1013.53 1013.37 1013.13 1012.93 1012.69 1012.49 1012.33 1012.13 1011.89 1011.69 1011.49 1011.33 1011.09 1010.89 1010.73 1010.53 1010.37 1010.25 1010.09 1009.93 1009.73 1009.57 1009.41 1009.25 1009.09 1008.93 1008.69 1008.53 1008.37 1008.25 1008.21 1008.09 1008.01 1007.85 1007.69 1007.53 1007.41 1007.29 1007.21 1007.13 1007.13 1007.09 1007.01 1006.93 1006.85 1006.77 1006.73 1006.69 1006.65 1006.57 1006.49 1006.41 1006.33 1006.21 1006.09 1005.97 1005.89 1005.81 1005.81 1005.77 1005.69 1005.65
1014.85 1014.65 1014.49 1014.29 1014.05 1013.85 1013.65 1013.45 1013.25 1013.05 1012.77 1012.61 1012.41 1012.21 1011.97 1011.77 1011.61 1011.41 1011.17 1010.93 1010.73 1010.53 1010.37 1010.21 1010.05 1009.89 1009.69 1009.49 1009.33 1009.09 1008.93 1008.81 1008.65 1008.49 1008.29 1008.09 1007.93 1007.81 1007.73 1007.65 1007.49 1007.33 1007.17 1006.97 1006.85 1006.77 1006.77 1006.77 1006.73 1006.73 1006.69 1006.61 1006.49 1006.45 1006.37 1006.25 1006.21 1006.21 1006.09 1006.01 1005.93 1005.77 1005.65 1005.49 1005.37 1005.25 1005.21 1005.21 1005.13
1014.77 1014.57 1014.37 1014.17 1013.93 1013.73 1013.53 1013.37 1013.13 1012.93 1012.73 1012.53 1012.33 1012.05 1011.81 1011.65 1011.45 1011.21 1011.01 1010.81 1010.61 1010.41 1010.21 1010.05 1009.89 1009.69 1009.49 1009.25 1009.05 1008.85 1008.65 1008.49 1008.37 1008.21 1008.05 1007.85 1007.65 1007.49 1007.33 1007.21 1007.09 1006.93 1006.77 1006.61 1006.49 1006.45 1006.41 1006.37 1006.37 1006.37 1006.41 1006.37 1006.29 1006.21 1006.05 1005.93 1005.81 1005.77 1005.73 1005.61 1005.49 1005.37 1005.21 1005.09 1004.93 1004.81 1004.77 1004.77 1004.69
1014.69 1014.49 1014.25 1014.01 1013.85 1013.65 1013.37 1013.21 1013.01 1012.81 1012.61 1012.41 1012.21 1011.93 1011.73 1011.53 1011.33 1011.09 1010.89 1010.69 1010.49 1010.25 1010.05 1009.85 1009.65 1009.49 1009.25 1009.05 1008.77 1008.57 1008.41 1008.25 1008.09 1007.93 1007.77 1007.57 1007.37 1007.17 1006.97 1006.81 1006.65 1006.49 1006.37 1006.29 1006.21 1006.09 1006.05 1006.01 1005.93 1005.93 1006.01 1006.05 1006.01 1005.89 1005.73 1005.61 1005.49 1005.37 1005.25 1005.13 1005.01 1004.93 1004.77 1004.65 1004.49 1004.45 1004.37 1004.29 1004.25
1014.57 1014.37 1014.17 1013.93 1013.69 1013.45 1013.21 1013.09 1012.93 1012.69 1012.49 1012.29 1012.05 1011.85 1011.65 1011.37 1011.21 1010.93 1010.73 1010.49 1010.33 1010.13 1009.93 1009.65 1009.49 1009.25 1009.09 1008.77 1008.57 1008.37 1008.21 1008.01 1007.85 1007.69 1007.49 1007.25 1007.09 1006.85 1006.65 1006.45 1006.29 1006.13 1006.01 1005.93 1005.85 1005.77 1005.65 1005.61 1005.53 1005.49 1005.53 1005.65 1005.65 1005.57 1005.41 1005.25 1005.09 1004.93 1004.77 1004.69 1004.53 1004.41 1004.33 1004.21 1004.09 1004.05 1003.97 1003.89 1003.81
1014.49 1014.29 1014.05 1013.85 1013.61 1013.37 1013.13 1012.93 1012.77 1012.57 1012.37 1012.17 1011.93 1011.73 1011.49 1011.29 1011.09 1010.81 1010.61 1010.37 1010.17 1009.97 1009.77 1009.61 1009.37 1009.13 1008.89 1008.65 1008.41 1008.21 1007.97 1007.73 1007.57 1007.41 1007.21 1007.01 1006.77 1006.49 1006.29 1006.13 1005.97 1005.77 1005.65 1005.53 1005.49 1005.37 1005.25 1005.17 1005.09 1005.09 1005.09 1005.17 1005.25 1005.21 1005.05 1004.85 1004.69 1004.49 1004.37 1004.21 1004.05 1003.93 1003.85 1003.77 1003.65 1003.57 1003.49 1003.45 1003.37
1014.37 1014.21 1013.97 1013.73 1013.49 1013.21 1013.01 1012.77 1012.61 1012.41 1012.25 1012.05 1011.81 1011.61 1011.37 1011.17 1010.93 1010.65 1010.49 1010.25 1010.05 1009.77 1009.61 1009.45 1009.21 1008.97 1008.69 1008.45 1008.21 1007.97 1007.73 1007.49 1007.25 1007.09 1006.93 1006.69 1006.41 1006.17 1005.93 1005.73 1005.61 1005.41 1005.25 1005.09 1004.97 1004.89 1004.77 1004.69 1004.65 1004.61 1004.65 1004.65 1004.77 1004.73 1004.61 1004.37 1004.21 1004.05 1003.85 1003.69 1003.57 1003.45 1003.37 1003.29 1003.25 1003.17 1003.05 1002.97 1002.93
1014.25 1014.05 1013.89 1013.65 1013.37 1013.09 1012.81 1012.65 1012.45 1012.25 1012.05 1011.89 1011.65 1011.45 1011.21 1011.01 1010.73 1010.49 1010.33 1010.13 1009.89 1009.65 1009.37 1009.17 1008.93 1008.65 1008.37 1008.09 1007.93 1007.69 1007.41 1007.17 1006.93 1006.73 1006.53 1006.33 1006.09 1005.81 1005.53 1005.37 1005.13 1004.93 1004.77 1004.61 1004.49 1004.37 1004.29 1004.21 1004.13 1004.09 1004.09 1004.13 1004.21 1004.17 1004.05 1003.85 1003.69 1003.49 1003.37 1003.17 1003.05 1002.93 1002.93 1002.89 1002.77 1002.69 1002.61 1002.57 1002.49
1014.17 1013.93 1013.73 1013.45 1013.17 1012.89 1012.65 1012.41 1012.21 1012.05 1011.89 1011.65 1011.45 1011.25 1011.05 1010.77 1010.49 1010.25 1010.05 1009.85 1009.65 1009.41 1009.13 1008.85 1008.61 1008.33 1008.05 1007.77 1007.53 1007.29 1007.01 1006.77 1006.53 1006.29 1006.05 1005.89 1005.65 1005.37 1005.09 1004.85 1004.57 1004.37 1004.21 1004.05 1003.93 1003.81 1003.73 1003.65 1003.61 1003.57 1003.57 1003.61 1003.65 1003.57 1003.45 1003.29 1003.13 1002.97 1002.77 1002.65 1002.49 1002.45 1002.37 1002.37 1002.29 1002.21 1002.13 1002.09 1002.05
1014.05 1013.77 1013.49 1013.21 1012.97 1012.73 1012.49 1012.25 1012.05 1011.89 1011.69 1011.49 1011.21 1010.97 1010.77 1010.53 1010.29 1010.01 1009.77 1009.53 1009.37 1009.13 1008.85 1008.57 1008.29 1008.01 1007.73 1007.45 1007.17 1006.89 1006.61 1006.33 1006.05 1005.81 1005.61 1005.37 1005.21 1004.93 1004.65 1004.37 1004.05 1003.81 1003.65 1003.53 1003.41 1003.29 1003.21 1003.13 1003.05 1003.01 1003.01 1003.01 1003.05 1002.93 1002.77 1002.65 1002.49 1002.37 1002.21 1002.05 1001.93 1001.89 1001.85 1001.81 1001.77 1001.73 1001.65 1001.65 1001.65
1013.89 1013.61 1013.33 1013.01 1012.77 1012.53 1012.29 1012.05 1011.89 1011.65 1011.45 1011.21 1010.93 1010.69 1010.49 1010.29 1010.05 1009.81 1009.53 1009.25 1009.05 1008.77 1008.49 1008.21 1007.93 1007.69 1007.41 1007.09 1006.81 1006.57 1006.25 1005.93 1005.65 1005.37 1005.17 1004.93 1004.73 1004.45 1004.13 1003.77 1003.49 1003.29 1003.17 1003.05 1002.89 1002.77 1002.65 1002.53 1002.49 1002.41 1002.41 1002.45 1002.41 1002.29 1002.13 1001.97 1001.85 1001.69 1001.53 1001.41 1001.37 1001.29 1001.29 1001.29 1001.25 1001.21 1001.17 1001.17 1001.21
1013.69 1013.49 1013.21 1012.89 1012.57 1012.33 1012.09 1011.93 1011.65 1011.41 1011.21 1010.93 1010.69 1010.45 1010.21 1010.01 1009.77 1009.53 1009.29 1009.05 1008.77 1008.45 1008.13 1007.81 1007.61 1007.37 1007.09 1006.73 1006.45 1006.21 1005.89 1005.57 1005.25 1004.93 1004.69 1004.49 1004.25 1003.93 1003.61 1003.21 1002.93 1002.69 1002.57 1002.49 1002.33 1002.17 1002.05 1001.93 1001.85 1001.81 1001.81 1001.85 1001.77 1001.65 1001.49 1001.37 1001.21 1001.05 1000.93 1000.85 1000.77 1000.65 1000.65 1000.69 1000.69 1000.65 1000.65 1000.65 1000.65
1013.53 1013.29 1013.05 1012.73 1012.41 1012.13 1011.93 1011.73 1011.49 1011.21 1010.97 1010.73 1010.49 1010.25 1010.05 1009.77 1009.49 1009.21 1009.01 1008.81 1008.53 1008.17 1007.77 1007.49 1007.25 1006.93 1006.65 1006.37 1006.05 1005.77 1005.45 1005.17 1004.93 1004.57 1004.21 1003.93 1003.77 1003.45 1003.09 1002.65 1002.33 1002.05 1001.89 1001.81 1001.65 1001.49 1001.37 1001.25 1001.21 1001.17 1001.17 1001.21 1001.13 1001.01 1000.89 1000.73 1000.57 1000.41 1000.29 1000.21 1000.05 1000.05 1000.05 1000.09 1000.13 1000.09 1000.05 1000.05 1000.05
1013.33 1013.13 1012.89 1012.61 1012.29 1012.01 1011.77 1011.57 1011.33 1011.09 1010.85 1010.53 1010.29 1010.05 1009.81 1009.57 1009.25 1008.97 1008.77 1008.57 1008.29 1007.93 1007.49 1007.21 1006.89 1006.57 1006.25 1006.01 1005.69 1005.33 1004.97 1004.73 1004.49 1004.17 1003.81 1003.49 1003.21 1002.93 1002.57 1002.09 1001.69 1001.37 1001.21 1001.13 1000.93 1000.77 1000.65 1000.53 1000.45 1000.41 1000.49 1000.49 1000.41 1000.37 1000.21 1000.05 999.93 999.77 999.65 999.53 999.49 999.41 999.45 999.49 999.49 999.49 999.49 999.49 999.49
1013.17 1012.93 1012.73 1012.49 1012.21 1011.93 1011.65 1011.45 1011.21 1010.97 1010.69 1010.41 1010.09 1009.81 1009.57 1009.33 1009.05 1008.73 1008.49 1008.33 1008.05 1007.69 1007.29 1006.93 1006.53 1006.21 1005.89 1005.65 1005.29 1004.89 1004.49 1004.17 1003.93 1003.65 1003.37 1002.97 1002.65 1002.33 1002.01 1001.61 1001.13 1000.77 1000.53 1000.45 1000.29 1000.13 999.93 999.77 999.69 999.65 999.69 999.77 999.73 999.65 999.57 999.41 999.25 999.09 999.01 998.93 998.89 998.85 998.85 998.89 998.93 998.93 998.93 998.93 998.93
1013.05 1012.85 1012.65 1012.41 1012.13 1011.85 1011.57 1011.29 1011.05 1010.81 1010.57 1010.29 1009.97 1009.65 1009.37 1009.09 1008.77 1008.49 1008.21 1008.01 1007.73 1007.41 1007.09 1006.65 1006.21 1005.85 1005.57 1005.29 1004.93 1004.49 1004.01 1003.65 1003.33 1003.09 1002.81 1002.49 1002.09 1001.77 1001.49 1001.09 1000.65 1000.21 999.93 999.77 999.65 999.45 999.25 999.09 998.93 998.85 998.89 998.97 999.01 998.97 998.93 998.77 998.65 998.49 998.41 998.37 998.37 998.37 998.37 998.41 998.45 998.49 998.57 998.65 998.65
1012.93 1012.77 1012.53 1012.29 1012.05 1011.77 1011.49 1011.17 1010.89 1010.65 1010.41 1010.17 1009.85 1009.49 1009.21 1008.89 1008.57 1008.25 1007.97 1007.69 1007.37 1007.09 1006.77 1006.37 1005.93 1005.49 1005.21 1004.89 1004.57 1004.13 1003.65 1003.17 1002.77 1002.49 1002.25 1001.97 1001.65 1001.29 1000.97 1000.65 1000.21 999.81 999.45 999.17 998.97 998.77 998.57 998.37 998.21 998.05 998.05 998.17 998.21 998.25 998.21 998.17 998.05 997.93 997.85 997.81 997.93 998.01 998.13 998.21 998.29 998.37 998.41 998.49 998.61
Wind_Speed
4 4 4 4 4 4 4 4 4 4 4 4 4 4 4 3 4 4 4 4 4 5 5 5 5 6 6 6 6 6 6 6 6 5 5 5 4 4 4 4 5 5 6 6 6 7 7 7 7 7 6 6 7 7 6 5 5 5 5 5 5 5 5 6 6 6 6 7 6
5 5 5 4 4 4 4 4 4 4 4 3 3 4 4 4 4 4 4 4 4 5 5 5 5 6 7 8 7 6 6 6 6 5 4 4 4 3 3 3 4 4 5 6 6 6 6 7 7 7 6 6 7 7 7 6 6 6 7 7 6 5 5 6 6 6 6 6 6
5 5 5 4 4 4 4 4 4 4 4 4 4 4 4 4 4 4 5 5 5 5 5 5 6 6 7 8 7 6 6 6 5 4 4 3 3 3 3 3 4 4 4 5 5 6 6 6 6 6 7 7 7 8 8 7 6 6 7 7 5 5 5 5 5 5 5 5 5
4 4 5 5 6 6 5 4 4 5 5 5 4 4 4 4 4 5 5 5 5 5 5 6 6 6 6 7 7 7 6 5 4 4 4 4 4 3 3 3 4 4 4 4 5 5 5 6 5 6 6 7 8 8 8 7 7 6 6 6 5 5 5 5 5 5 5 5 5
5 4 4 5 6 6 6 5 5 5 5 4 4 4 4 4 5 5 5 6 6 6 6 7 6 6 6 6 6 6 5 4 3 3 4 4 4 4 4 4 4 4 4 4 4 4 5 5 5 5 6 7 7 7 8 9 9 8 7 7 6 5 5 5 5 5 5 5 5
5 5 5 5 6 6 5 5 6 6 6 4 4 5 6 5 5 6 6 7 7 8 8 7 7 6 6 6 5 5 4 4 3 3 4 5 5 5 5 5 5 4 4 4 4 4 4 4 4 5 6 6 6 7 8 9 9 9 9 8 7 6 6 6 5 5 5 6 6
5 5 6 6 6 6 6 6 6 6 5 5 6 7 8 7 7 8 8 8 7 7 7 6 6 6 6 5 4 4 4 4 4 4 4 5 5 5 5 6 5 5 5 5 4 4 4 4 4 5 6 6 7 8 9 9 9 9 9 10 8 7 6 7 6 6 7 8 9
5 5 6 7 7 7 7 7 6 6 6 6 8 9 10 9 9 9 8 7 7 6 6 5 5 5 5 4 4 4 4 4 5 5 5 5 5 6 6 6 6 6 6 6 5 5 5 4 4 5 5 5 7 8 8 8 9 10 10 11 10 8 7 7 6 6 7 9 10
6 7 7 8 8 8 8 9 8 8 8 9 9 10 10 10 9 9 8 7 7 6 5 4 4 4 4 4 4 4 4 5 5 5 5 5 6 6 6 6 7 7 7 7 7 7 6 5 5 5 5 6 7 7 8 8 10 10 11 11 10 10 9 8 8 8 9 10 11
8 9 9 9 9 9 10 10 9 9 9 10 10 10 10 9 9 8 7 7 6 5 4 4 4 4 4 4 4 4 5 5 5 6 6 6 7 7 8 7 8 9 9 8 8 7 7 6 6 7 6 6 7 8 8 8 9 10 10 9 10 11 12 11 10 11 11 11 12
10 10 10 10 10 10 10 10 9 9 9 10 10 10 9 9 9 8 7 6 6 5 5 4 4 4 4 5 5 5 5 5 5 6 7 8 8 9 9 9 10 10 10 10 9 8 8 8 9 9 9 8 8 8 9 9 9 10 10 9 11 12 14 14 13 12 12 12 13
11 11 11 11 11 11 10 10 9 9 9 9 10 9 9 9 9 8 7 6 6 6 6 5 5 5 5 5 6 6 6 6 7 7 8 9 10 10 11 11 12 12 12 12 11 10 9 10 11 12 12 12 10 9 8 9 9 10 11 11 12 13 14 15 14 13 12 12 12
11 11 11 11 11 11 10 10 8 8 8 9 9 9 8 8 8 8 7 7 7 7 6 5 5 5 6 6 6 7 7 7 8 8 9 10 11 11 12 13 13 14 14 13 12 11 11 11 12 13 14 13 11 10 10 10 11 11 11 12 12 13 13 14 14 13 13 13 13
12 12 12 11 11 10 10 9 8 8 8 9 9 9 8 8 8 7 7 8 8 8 7 6 6 6 6 7 7 7 8 8 9 10 10 11 12 12 13 13 14 14 14 13 13 13 13 13 13 13 14 15 14 13 12 12 12 12 12 12 13 13 13 14 14 14 14 15 15
12 12 12 11 11 10 9 9 8 8 8 9 9 9 8 8 8 8 8 8 8 8 7 7 7 7 7 8 8 9 9 9 10 11 12 12 13 13 14 14 15 15 15 14 14 14 14 14 14 14 14 15 15 15 14 13 13 13 13 13 13 13 13 13 14 14 15 16 15
12 12 11 11 11 10 10 9 8 8 9 9 9 9 9 8 8 8 8 9 8 8 8 8 8 8 9 9 10 10 10 11 11 12 13 13 14 14 15 15 16 16 16 16 16 15 15 15 15 15 15 16 16 16 15 15 14 14 14 14 14 14 14 14 14 15 15 16 16
11 11 11 11 11 11 11 10 9 9 10 11 11 10 10 9 9 9 9 10 9 9 9 10 10 10 10 10 10 10 11 12 12 13 13 14 15 16 16 17 17 17 17 17 17 17 17 17 16 16 16 17 17 16 16 16 15 15 15 14 14 15 15 15 15 16 16 17 17
11 11 11 11 12 12 12 12 12 12 12 12 12 11 11 10 10 11 11 11 11 11 11 12 11 11 11 12 11 11 11 12 13 14 14 15 16 16 17 18 18 18 18 18 18 19 19 19 19 18 17 17 17 16 16 16 15 15 15 15 15 15 16 16 16 16 17 17 18
12 12 12 13 13 14 14 14 14 14 14 13 13 13 13 13 12 12 12 12 12 12 13 12 12 12 12 13 13 12 12 13 14 15 16 16 16 17 18 18 18 18 18 19 19 20 20 21 20 19 18 17 17 17 16 16 16 15 15 15 15 16 16 16 17 17 17 18 19
13 13 14 14 15 15 16 16 16 15 15 14 14 14 14 14 14 14 14 14 13 13 13 13 12 12 13 13 14 14 13 13 14 16 16 16 17 18 18 19 19 19 20 20 20 20 21 21 21 20 19 18 18 17 17 16 16 16 16 15 15 16 16 17 17 17 18 19 20
14 15 15 16 16 17 17 17 17 17 16 16 16 15 15 15 14 14 14 14 14 14 13 13 13 13 14 14 15 15 14 13 14 16 17 17 18 18 19 19 19 20 20 20 20 21 21 21 21 20 20 19 19 18 18 17 17 17 17 16 16 16 17 17 18 18 19 19 20
15 16 16 17 17 18 18 18 17 17 17 16 16 15 15 15 15 15 15 14 14 14 14 13 13 14 14 15 16 16 15 14 15 16 16 17 18 18 19 19 20 20 21 21 21 21 22 22 22 21 20 19 19 19 18 18 18 18 18 17 17 17 17 17 18 18 19 19 20
16 16 17 17 17 18 18 18 18 17 17 17 16 16 16 15 15 15 15 14 14 14 14 13 13 14 14 15 16 16 16 16 16 16 17 17 18 19 19 19 20 21 21 20 20 20 20 20 20 20 20 19 19 19 18 18 17 17 18 18 18 18 17 17 17 17 17 18 19
16 17 16 16 17 18 18 18 18 18 18 18 17 17 16 16 16 16 15 15 15 15 14 13 13 14 15 15 16 16 17 17 17 18 18 18 18 19 20 20 20 20 19 17 17 18 18 17 17 17 17 17 17 17 17 17 17 17 18 19 19 19 18 18 17 17 17 18 18
17 17 17 16 17 18 18 18 18 18 18 18 18 17 17 17 16 16 16 16 16 16 16 16 15 15 15 15 16 17 17 18 19 19 19 20 20 19 19 18 18 17 16 15 19 22 23 20 17 15 14 15 15 15 15 16 16 17 17 18 19 19 19 20 19 19 18 19 18
16 17 17 17 17 18 18 18 18 18 19 19 19 18 18 17 16 16 17 17 17 17 17 17 16 16 15 16 17 18 18 18 18 19 19 19 20 20 19 18 16 15 14 16 21 24 25 25 23 20 16 14 14 15 15 16 16 17 17 18 19 19 19 20 20 20 19 18 18
16 16 17 17 17 18 18 18 18 18 19 19 19 19 19 18 17 17 17 17 17 17 17 16 16 16 16 15 17 18 18 17 17 18 19 19 19 20 19 18 16 14 14 18 22 24 25 25 25 24 21 17 16 15 15 15 16 17 18 18 19 19 20 20 20 20 19 19 19
15 16 16 17 17 18 18 18 18 18 19 19 19 19 19 19 19 19 18 18 18 18 17 16 15 14 13 13 15 17 17 17 17 17 17 18 19 19 19 17 16 16 17 21 24 25 26 26 27 27 25 21 18 16 16 17 17 17 17 17 17 18 19 19 18 18 18 19 19
15 16 16 17 17 18 18 18 18 18 19 19 19 19 19 19 20 20 20 19 19 18 17 15 14 13 13 14 15 17 18 18 17 17 17 18 18 19 19 19 18 19 21 25 27 28 29 29 29 29 28 26 19 15 14 15 15 15 15 15 15 16 17 17 16 16 17 18 18
15 15 16 17 18 18 18 18 18 18 18 18 18 19 20 20 20 21 21 21 20 19 17 15 14 15 16 17 17 18 18 18 18 17 18 19 19 20 20 20 19 20 22 26 29 30 31 31 31 31 30 29 24 19 15 15 15 15 15 15 16 17 17 17 18 18 17 16 17
15 16 16 17 18 18 19 18 18 18 18 18 19 20 20 21 21 21 21 20 20 19 18 18 18 19 19 19 19 19 20 20 19 19 19 19 20 21 21 22 22 22 24 28 30 32 32 33 32 32 31 30 25 20 17 16 17 16 16 15 16 18 18 18 18 18 18 18 18
16 16 17 17 18 18 19 19 19 19 19 19 20 21 21 22 21 21 20 20 19 19 20 20 20 21 21 21 21 21 21 21 20 20 20 20 21 22 22 23 23 24 25 29 32 33 33 33 33 33 32 31 27 23 20 19 19 18 17 18 20 20 20 18 17 18 19 20 19
16 16 17 18 18 19 19 19 19 19 19 20 20 21 21 22 21 21 20 19 18 19 19 20 20 20 21 21 21 21 21 21 21 22 22 22 22 23 23 23 22 23 25 29 31 32 33 33 33 33 32 32 27 23 21 21 19 17 17 18 20 21 21 22 20 20 20 20 19
15 16 17 18 19 19 19 19 18 18 18 19 20 20 21 21 21 21 20 19 18 18 18 19 19 19 20 20 20 21 21 20 20 21 22 22 23 24 24 22 19 20 24 29 31 32 32 32 33 32 32 31 25 22 20 21 19 18 18 19 20 20 21 21 22 22 21 21 20
16 17 18 18 19 19 19 19 18 18 18 19 19 20 20 20 20 20 19 19 18 18 18 18 18 18 19 19 19 20 20 21 21 21 22 22 23 24 24 24 22 24 27 31 33 33 33 33 33 33 32 29 23 19 19 20 20 20 20 21 21 21 22 22 21 21 21 21 21
16 17 17 18 19 20 20 20 19 19 20 20 20 20 20 20 20 19 18 18 18 19 18 18 18 18 19 19 19 19 20 21 22 22 22 22 23 24 25 25 25 26 29 32 34 35 35 35 34 34 32 27 20 17 17 17 17 18 20 22 22 22 22 22 21 20 20 20 20
16 17 17 18 19 20 20 20 20 20 20 20 20 20 20 20 20 19 18 17 18 18 18 18 18 19 20 20 19 20 20 21 22 22 23 23 23 24 25 26 26 27 29 32 34 35 35 35 35 34 31 25 19 17 16 16 15 16 18 20 21 21 21 20 19 19 20 20 20
17 18 18 19 20 20 21 21 20 20 21 21 20 20 20 20 19 18 18 17 17 18 19 19 19 19 20 20 20 21 22 22 22 23 23 24 23 24 25 26 26 26 27 29 32 34 35 35 35 34 30 23 19 17 16 15 15 15 16 16 17 18 19 17 16 16 17 19 20
18 19 19 20 20 21 21 21 21 21 21 21 21 21 20 19 18 17 17 17 17 18 19 19 20 20 20 21 21 21 22 23 23 23 23 23 23 24 25 26 26 25 26 28 31 33 34 34 34 33 31 24 19 16 14 13 14 15 15 14 14 15 16 15 14 13 14 17 21
18 19 20 20 20 21 21 21 21 21 20 20 21 21 20 19 18 18 18 17 17 17 18 19 21 21 21 20 21 21 22 23 23 23 23 23 24 26 27 27 26 26 27 28 31 33 34 34 35 34 31 24 18 15 13 12 13 14 14 13 12 11 11 10 10 10 10 13 18
18 19 20 20 20 20 21 21 21 21 20 20 21 20 19 19 18 18 17 17 17 17 17 18 20 21 22 21 20 20 22 23 24 24 24 24 25 26 26 26 26 26 26 28 30 33 34 35 36 35 32 24 18 14 12 12 13 14 14 13 10 8 7 6 6 6 7 9 11
Wind_Direction
275 273 271 272 274 276 277 277 275 272 269 266 269 272 276 280 283 285 286 287 288 289 289 290 288 287 285 281 277 275 276 279 284 289 295 300 304 310 318 326 331 333 334 333 333 333 333 333 331 327 322 317 313 309 304 299 294 287 280 274 272 269 267 267 267 269 270 272 273
280 278 277 277 278 279 279 279 276 272 267 262 262 265 269 273 277 281 284 284 284 285 288 290 289 286 284 281 278 277 278 281 285 289 293 295 297 305 315 323 326 328 330 331 331 330 328 328 326 322 317 313 311 310 307 303 297 291 283 277 273 269 266 265 264 264 265 267 269
282 285 287 287 285 283 280 278 276 273 270 269 267 268 270 272 275 279 282 282 283 285 287 289 287 284 282 281 280 279 279 281 285 288 291 292 298 304 310 315 318 321 324 325 325 323 322 323 320 316 312 310 309 308 306 304 301 295 288 281 276 270 266 265 263 263 264 264 264
284 285 285 285 281 276 272 270 271 271 270 271 272 272 272 272 276 279 282 285 288 288 287 285 283 281 280 279 279 280 280 280 281 285 289 294 298 301 303 306 310 312 314 316 315 315 315 316 314 310 308 305 304 303 303 304 303 298 292 285 279 273 269 266 264 263 262 262 260
285 280 277 275 272 268 264 261 263 265 267 269 275 277 278 278 281 285 288 291 291 289 286 283 282 280 278 277 276 276 276 276 276 281 289 296 297 299 300 303 302 302 302 302 302 303 305 308 306 304 302 301 299 298 298 300 300 297 293 289 283 277 272 269 266 264 263 262 260
281 279 276 272 267 265 262 259 258 259 262 267 273 277 280 282 284 286 287 287 287 286 286 285 283 281 279 278 275 273 272 272 272 278 285 291 294 297 299 299 297 294 292 290 289 290 292 298 297 296 296 295 293 292 293 296 296 295 293 290 285 281 276 270 267 265 263 262 262
275 276 276 272 266 264 262 260 259 260 263 267 271 274 275 277 278 279 279 280 283 285 286 284 282 280 278 277 275 272 270 272 272 273 276 281 286 289 292 292 292 290 288 286 285 284 282 283 287 288 289 288 288 289 289 291 292 292 291 289 287 283 278 272 269 266 263 262 261
278 277 275 272 268 265 264 264 265 268 271 273 273 272 272 273 274 275 276 279 280 279 278 279 277 274 272 272 270 269 268 270 273 273 273 276 281 285 287 289 290 290 288 286 284 282 279 278 278 279 280 281 282 283 283 284 286 287 287 287 286 283 278 273 270 265 262 261 260
292 288 285 282 277 274 272 270 270 271 273 274 273 272 272 272 272 274 275 277 275 274 273 272 266 262 259 258 261 263 267 271 276 279 281 281 284 286 289 290 291 291 291 289 286 283 281 279 276 273 271 273 275 275 275 276 278 280 281 283 283 282 279 275 270 266 262 260 260
299 298 296 294 290 286 283 280 277 275 274 275 274 273 273 273 273 273 273 272 274 274 271 261 253 250 251 253 259 265 271 277 283 288 290 290 291 292 292 293 293 293 293 292 290 287 283 281 276 271 268 265 265 265 266 267 270 272 275 278 280 281 280 278 273 269 265 262 261
301 300 299 297 295 292 290 287 284 281 278 277 277 277 277 277 276 274 273 274 276 273 264 251 247 250 256 263 269 273 278 283 287 291 293 294 294 293 294 293 293 293 292 292 291 288 285 281 277 273 270 266 263 262 263 263 264 267 270 273 277 279 280 279 276 272 267 263 261
302 300 299 296 294 293 291 288 286 284 282 280 280 280 279 279 276 276 276 277 274 268 261 253 253 259 266 273 276 279 281 284 286 288 290 290 291 292 292 292 292 292 292 291 290 288 284 281 278 276 274 271 267 265 263 262 263 266 268 271 274 276 277 278 276 274 270 266 261
302 301 299 297 295 293 291 289 287 285 284 282 281 281 280 279 277 276 276 274 269 266 264 261 261 264 269 273 275 278 279 281 283 284 286 286 288 289 290 291 291 292 292 292 290 288 283 279 277 275 274 272 270 266 264 263 264 265 266 268 270 271 272 274 275 274 272 268 263
303 301 299 298 296 294 292 290 289 287 286 284 283 282 281 280 278 276 273 270 266 265 265 266 267 267 268 269 272 274 275 277 279 281 282 283 285 287 288 289 290 291 292 291 290 286 282 278 275 273 271 271 270 268 266 264 264 264 264 265 266 267 269 271 272 273 271 268 264
304 302 301 300 299 297 296 294 293 292 290 288 287 286 285 284 281 277 274 270 266 265 265 268 270 269 269 268 270 271 273 275 276 278 280 281 283 284 286 287 289 290 290 290 288 285 281 277 274 272 270 270 269 268 267 265 264 263 263 263 264 266 267 269 270 270 269 267 264
306 305 305 304 304 303 302 300 299 298 297 295 293 291 289 287 284 281 277 274 271 270 270 270 271 272 272 270 271 272 273 274 275 277 278 280 281 283 284 285 287 288 288 288 287 284 281 277 275 272 270 269 268 268 267 265 264 263 263 263 264 265 266 267 267 268 267 266 263
310 310 311 311 310 309 308 307 306 304 302 299 298 296 293 290 288 285 281 278 277 275 274 272 272 273 274 274 273 273 274 275 276 276 277 279 280 282 283 284 285 285 286 286 285 283 281 278 275 273 270 269 268 267 266 265 265 264 264 264 264 265 266 267 267 267 267 266 263
316 316 316 316 315 313 311 309 307 305 302 301 299 297 295 292 291 289 286 282 280 278 276 275 274 274 274 275 274 274 275 276 276 277 277 278 280 281 282 282 283 283 284 283 282 281 280 278 276 273 271 269 267 266 265 265 265 264 264 265 265 266 267 267 267 268 267 267 264
318 318 317 316 314 312 310 308 305 304 302 300 299 297 296 294 292 291 289 286 283 280 278 277 276 275 275 275 275 275 275 276 277 277 277 278 279 279 280 281 281 282 281 281 280 279 277 276 275 273 271 269 267 266 265 265 265 265 265 265 266 266 267 268 268 267 267 267 266
317 316 315 313 312 310 308 306 304 303 302 300 299 298 296 295 293 291 290 287 285 283 281 280 279 278 277 277 277 277 276 276 277 277 277 277 278 278 279 280 280 280 279 279 277 276 275 273 272 271 270 269 268 267 266 265 265 265 265 265 266 266 266 267 267 267 266 266 265
314 313 312 311 309 308 306 305 304 303 302 301 299 298 297 296 294 292 290 288 287 286 284 282 281 281 280 281 280 280 279 278 278 278 278 278 278 278 279 279 279 279 278 276 275 274 273 272 271 270 270 269 268 267 267 266 266 266 266 265 265 265 265 265 265 265 265 264 264
312 311 310 309 308 307 306 305 304 303 302 301 300 298 297 296 294 293 291 291 290 288 286 285 284 283 283 283 283 283 283 282 280 279 279 279 279 278 278 278 278 277 276 274 273 272 270 269 269 268 268 268 267 266 266 266 266 266 266 266 265 264 264 263 262 262 262 262 262
310 310 309 308 307 306 305 305 304 303 302 301 300 299 298 297 296 295 294 294 292 290 289 287 287 286 286 285 285 285 284 283 281 280 278 278 277 277 277 276 276 274 273 271 270 269 268 267 267 266 266 266 266 266 266 266 266 267 267 267 267 266 265 263 261 260 259 258 259
310 309 308 307 306 306 305 304 304 303 302 301 301 300 300 299 298 298 297 295 293 292 291 290 289 289 288 287 285 284 283 282 281 280 279 278 276 276 275 275 273 271 270 268 266 265 264 265 265 266 265 265 265 266 266 267 267 267 268 268 269 268 267 265 263 261 259 257 256
309 308 307 306 305 305 304 304 303 302 302 301 301 301 300 299 299 298 297 296 294 293 292 292 291 290 289 287 286 284 282 281 281 280 280 278 277 275 274 273 271 269 267 265 264 263 262 261 262 263 264 265 265 265 265 265 265 265 265 266 266 267 267 266 264 262 259 258 256
308 308 307 305 305 304 303 302 302 302 301 301 301 300 300 299 298 297 296 295 294 293 293 293 291 290 289 287 285 284 282 281 280 279 279 278 276 275 273 271 269 267 264 263 263 262 262 262 261 261 263 264 265 265 265 264 262 261 261 261 262 262 263 263 263 261 259 258 256
308 307 306 305 304 303 302 302 302 301 301 301 300 300 299 299 298 297 295 294 294 294 293 292 291 290 288 286 284 283 281 280 279 278 277 276 274 273 271 269 267 265 264 264 264 264 264 264 263 262 262 262 263 263 263 263 262 261 260 259 259 259 259 259 260 260 259 258 257
307 306 305 305 303 302 302 302 301 301 300 300 300 299 299 298 297 296 295 295 295 294 294 292 291 290 288 285 283 282 282 281 280 278 277 275 274 272 271 270 268 267 266 266 266 266 266 266 265 264 263 262 262 262 262 262 262 261 259 257 257 256 255 255 256 256 256 256 256
306 305 305 304 303 302 301 301 301 300 300 299 299 299 299 298 297 297 296 296 296 295 294 293 292 291 288 286 285 284 283 282 281 279 278 276 275 273 271 271 270 270 269 269 268 268 268 267 266 265 264 262 261 260 259 259 259 258 257 256 254 253 252 251 252 252 252 253 253
306 305 304 303 302 301 300 300 299 299 299 299 299 299 299 298 297 297 296 296 296 295 294 293 292 290 288 286 286 285 284 283 281 280 278 277 276 274 273 272 272 271 271 270 270 269 268 268 267 266 265 263 261 260 258 256 256 255 255 254 253 251 251 250 250 250 249 248 249
306 305 304 302 301 299 299 298 298 298 299 299 299 299 298 297 297 296 296 295 295 294 293 292 290 288 286 286 285 284 283 282 281 279 277 276 275 274 274 273 272 271 270 270 269 269 268 268 267 266 265 263 261 259 256 255 254 253 252 251 250 250 250 251 250 248 247 246 247
306 305 303 301 299 298 298 298 298 298 298 298 298 297 297 296 295 295 294 294 293 292 291 290 288 286 285 284 283 282 281 280 279 277 276 275 274 273 273 272 271 270 269 268 268 268 267 267 266 265 264 262 260 258 256 254 253 252 251 250 249 249 248 248 248 248 247 246 246
305 303 301 300 298 298 298 298 298 298 298 297 296 296 295 295 294 294 293 292 291 290 289 288 286 285 284 283 282 281 280 278 277 275 274 273 272 272 271 270 269 268 268 267 267 267 266 266 265 264 262 261 259 257 254 252 251 250 249 248 248 247 247 247 247 246 246 246 246
304 302 300 299 299 299 299 299 299 298 297 296 295 295 295 295 294 294 293 292 291 289 287 285 283 283 282 281 280 279 278 277 275 274 273 272 272 271 270 269 267 267 267 267 267 267 266 266 265 263 262 260 258 255 252 249 248 247 246 246 246 246 245 244 244 244 245 245 245
303 302 301 300 300 300 300 300 299 298 297 296 295 295 295 295 294 293 293 292 291 288 286 284 282 281 280 279 278 277 277 276 275 274 272 272 271 270 269 268 267 267 267 267 268 267 267 266 265 263 262 259 257 254 250 248 247 246 245 245 245 245 244 243 243 242 242 243 243
303 302 301 300 300 301 301 301 300 300 299 298 297 297 297 296 295 294 293 293 291 289 287 285 284 282 281 280 278 277 276 275 275 274 273 272 271 270 269 268 268 267 267 267 267 267 266 265 264 263 261 259 256 252 249 248 246 245 244 244 243 243 242 241 240 240 240 240 239
304 303 302 301 302 302 302 302 302 301 300 299 299 298 298 297 296 295 295 294 292 290 288 286 284 283 281 281 279 278 276 275 275 274 274 272 271 270 270 269 268 267 267 266 266 266 265 264 263 261 259 257 253 250 248 246 245 244 243 242 242 241 240 239 239 238 237 235 232
305 305 304 303 303 303 303 303 302 301 301 300 299 299 298 298 297 296 295 294 292 290 288 286 284 282 281 281 280 278 277 275 274 274 273 272 271 270 269 269 268 267 266 266 266 265 264 263 262 260 257 254 250 247 245 243 242 241 240 239 239 238 237 236 235 234 232 227 221
306 306 305 304 304 303 303 303 302 301 301 300 300 299 299 298 296 295 294 292 289 288 286 285 284 283 282 282 281 280 278 276 275 273 273 272 271 270 270 270 270 269 268 267 267 266 265 264 262 260 257 253 249 244 242 240 240 239 238 236 236 235 233 230 227 225 221 216 209
307 307 306 305 304 303 303 302 301 301 300 300 300 299 298 297 294 293 292 290 288 286 285 284 284 284 283 283 282 280 279 278 277 276 274 273 273 273 272 272 272 271 271 270 269 268 267 265 264 261 259 254 248 243 239 237 237 236 235 233 231 228 224 218 213 208 205 203 197
308 307 306 305 303 303 302 301 301 300 300 299 298 297 296 295 293 292 291 289 288 287 285 284 284 284 284 283 282 281 281 280 280 278 277 276 275 275 274 273 273 273 272 271 270 269 268 267 265 263 260 255 249 242 236 234 234 232 230 225 217 207 197 188 184 180 180 180 181